TimePST,TemperatureF,Dew PointF,Humidity,Sea Level PressureIn,VisibilityMPH,Wind Direction,Wind SpeedMPH,Gust SpeedMPH,PrecipitationIn,Events,Conditions,WindDirDegrees,DateUTC
12:53 AM,42.1,35.1,76,30.30,10.0,Calm,Calm,-,N/A,,Overcast,0,2012-02-24 08:53:00
1:53 AM,41.0,37.0,86,30.29,8.0,Calm,Calm,-,0.00,Rain,Light Rain,0,2012-02-24 09:53:00
2:53 AM,41.0,37.0,86,30.27,10.0,ESE,3.5,-,0.00,Rain,Light Rain,120,2012-02-24 10:53:00
3:53 AM,41.0,37.0,86,30.23,10.0,ESE,5.8,-,0.00,,Overcast,110,2012-02-24 11:53:00
4:53 AM,41.0,36.0,82,30.20,10.0,SE,8.1,-,N/A,,Overcast,140,2012-02-24 12:53:00
5:53 AM,42.1,35.1,76,30.17,10.0,SSE,5.8,-,N/A,,Overcast,160,2012-02-24 13:53:00
6:53 AM,42.1,35.1,76,30.15,10.0,SE,3.5,-,N/A,,Overcast,130,2012-02-24 14:53:00
7:53 AM,43.0,35.1,74,30.10,10.0,ESE,3.5,-,N/A,,Overcast,120,2012-02-24 15:53:00
8:53 AM,44.1,37.0,76,30.06,10.0,SSE,3.5,-,N/A,,Overcast,160,2012-02-24 16:53:00
9:53 AM,45.0,37.0,74,30.00,10.0,SE,4.6,-,N/A,,Overcast,130,2012-02-24 17:53:00
10:53 AM,45.0,37.9,76,29.99,10.0,Calm,Calm,-,N/A,,Overcast,0,2012-02-24 18:53:00
11:53 AM,45.0,37.9,76,29.96,10.0,SSW,3.5,-,0.01,Rain,Light Rain,200,2012-02-24 19:53:00
12:53 PM,45.0,37.9,76,29.91,10.0,Calm,Calm,-,0.00,Rain,Light Rain,0,2012-02-24 20:53:00
1:53 PM,45.0,39.0,80,29.84,10.0,ESE,4.6,-,0.00,Rain,Light Rain,110,2012-02-24 21:53:00
2:53 PM,44.1,42.1,93,29.80,10.0,SE,4.6,-,0.04,Rain,Light Rain,140,2012-02-24 22:53:00
3:53 PM,45.0,43.0,93,29.75,3.0,Calm,Calm,-,0.09,Rain,Light Rain,0,2012-02-24 23:53:00
4:53 PM,45.0,43.0,93,29.73,5.0,Calm,Calm,-,0.10,Rain,Light Rain,0,2012-02-25 00:53:00
5:53 PM,44.1,41.0,89,29.72,9.0,SSE,3.5,-,0.06,Rain,Light Rain,150,2012-02-25 01:53:00
6:16 PM,44.6,42.8,93,29.69,10.0,ESE,4.6,-,0.01,Rain,Light Rain,110,2012-02-25 02:16:00
6:53 PM,44.1,42.1,93,29.69,8.0,SE,6.9,-,0.02,Rain,Light Rain,130,2012-02-25 02:53:00
7:53 PM,45.0,43.0,93,29.65,10.0,Calm,Calm,-,0.01,,Overcast,0,2012-02-25 03:53:00
8:53 PM,45.0,41.0,86,29.63,10.0,SSE,4.6,-,0.00,,Overcast,150,2012-02-25 04:53:00
9:53 PM,45.0,41.0,86,29.64,10.0,SSE,5.8,-,0.00,,Overcast,160,2012-02-25 05:53:00
10:30 PM,44.6,42.8,93,29.62,9.0,SSE,3.5,-,0.01,Rain,Light Rain,160,2012-02-25 06:30:00
10:53 PM,44.1,41.0,89,29.63,6.0,South,10.4,18.4,0.03,Rain,Light Rain,170,2012-02-25 06:53:00
11:53 PM,43.0,39.9,89,29.62,10.0,SE,5.8,-,0.01,,Mostly Cloudy,140,2012-02-25 07:53:00